Weather History for Port Aransas, TX

Change the Weather History Date:

Friday, May 18, 2012

  Actual Average (KCRP) Record (KCRP)
Temperature  
Mean Temperature 80 °F 79 °F  
Max Temperature 84 °F 87 °F 95 °F (1989)
Min Temperature 75 °F 71 °F 59 °F (1945)
Degree Days  
Heating Degree Days 0 0  
Month to date heating degree days 0  
Since 1 July heating degree days 898  
Cooling Degree Days 14 14  
Month to date cooling degree days 220  
Year to date cooling degree days 648  
Growing Degree Days 30 (Base 50)    
Moisture  
Dew Point 71 °F    
Average Humidity 74    
Maximum Humidity 83    
Minimum Humidity 62    
Precipitation  
Precipitation 0.00 in 0.10 in 2.68 in (1889)
Month to date precipitation 1.64  
Year to date precipitation 8.84  
Snow  
Snow 0.00 in - - ()
Month to date snowfall  
Since 1 July snowfall  
Snow Depth -    
Sea Level Pressure  
Sea Level Pressure 29.95 in    
Wind  
Wind Speed 9 mph (SE)    
Max Wind Speed 14 mph    
Max Gust Speed 20 mph    
Visibility 10 miles    
Events      
T = Trace of Precipitation, MM = Missing Value Source: NWS Daily Summary

Daily Weather History Graph

Daily Weather History Graph

Search for Another Location

Airport:

Trip Planner

Search our weather history database for the weather conditions in past years. The results will help you decide how hot, cold, wet, or windy it might be!

Date:

Astronomy

May. 18, 2012 Rise Set
Actual Time 6:37 AM CDT 8:12 PM CDT
Civil Twilight 6:11 AM CDT 8:38 PM CDT
Nautical Twilight 5:40 AM CDT 9:09 PM CDT
Astronomical Twilight 5:08 AM CDT 9:41 PM CDT
Moon 4:58 AM CDT (5/18) 6:28 PM CDT (5/18)
Length of Visible Light 14h 26m
Length of Day
13h 35m
Waning Crescent, 5% of the Moon is Illuminated
May 18
Waning Crescent
May 20
New
May 28
First Quarter
Jun 4
Full
Jun 11
Last Quarter

Hourly Weather History & Observations

Time (CDT) Temp. Heat Index Dew Point Humidity Pressure Visibility Wind Dir Wind Speed Gust Speed Precip Events Conditions
12:15 AM 77.0 °F - 69.8 °F 78% 29.98 in 10.0 mi SE 6.9 mph - N/A   Clear
12:35 AM 78.8 °F - 69.8 °F 74% 29.97 in 10.0 mi SE 5.8 mph - N/A   Clear
12:55 AM 77.0 °F - 69.8 °F 78% 29.97 in 10.0 mi SE 8.1 mph - N/A   Clear
1:15 AM 77.0 °F - 69.8 °F 78% 29.96 in 10.0 mi SE 8.1 mph - N/A   Clear
1:35 AM 77.0 °F - 69.8 °F 78% 29.96 in 10.0 mi SE 8.1 mph - N/A   Clear
1:55 AM 77.0 °F - 69.8 °F 78% 29.95 in 10.0 mi SE 8.1 mph - N/A   Clear
2:15 AM 77.0 °F - 71.6 °F 83% 29.95 in 10.0 mi SSE 9.2 mph - N/A   Clear
2:35 AM 77.0 °F - 71.6 °F 83% 29.95 in 10.0 mi SSE 9.2 mph - N/A   Partly Cloudy
2:55 AM 77.0 °F - 71.6 °F 83% 29.95 in 10.0 mi SSE 9.2 mph - N/A   Scattered Clouds
3:15 AM 77.0 °F - 71.6 °F 83% 29.95 in 10.0 mi SSE 8.1 mph - N/A   Scattered Clouds
3:35 AM 77.0 °F - 71.6 °F 83% 29.95 in 10.0 mi SSE 10.4 mph - N/A   Scattered Clouds
3:55 AM 77.0 °F - 71.6 °F 83% 29.94 in 10.0 mi SE 9.2 mph - N/A   Partly Cloudy
4:15 AM 77.0 °F - 69.8 °F 78% 29.94 in 10.0 mi SSE 8.1 mph - N/A   Partly Cloudy
4:35 AM 77.0 °F - 69.8 °F 78% 29.94 in 10.0 mi SSE 6.9 mph - N/A   Partly Cloudy
5:15 AM 75.2 °F - 69.8 °F 83% 29.94 in 10.0 mi SSE 6.9 mph - N/A   Partly Cloudy
5:35 AM 77.0 °F - 69.8 °F 78% 29.94 in 10.0 mi SSE 8.1 mph - N/A   Partly Cloudy
5:55 AM 75.2 °F - 69.8 °F 83% 29.94 in 10.0 mi SSE 5.8 mph - N/A   Partly Cloudy
6:15 AM 75.2 °F - 69.8 °F 83% 29.94 in 10.0 mi SSE 5.8 mph - N/A   Clear
6:35 AM 75.2 °F - 69.8 °F 83% 29.94 in 10.0 mi SSE 5.8 mph - N/A   Clear
6:55 AM 77.0 °F - 71.6 °F 83% 29.94 in 10.0 mi SSE 8.1 mph - N/A   Scattered Clouds
7:15 AM 77.0 °F - 71.6 °F 83% 29.95 in 10.0 mi SE 5.8 mph - N/A   Scattered Clouds
7:35 AM 78.8 °F - 71.6 °F 78% 29.96 in 10.0 mi SSE 8.1 mph - N/A   Scattered Clouds
7:55 AM 78.8 °F - 69.8 °F 74% 29.96 in 10.0 mi SSE 9.2 mph - N/A   Partly Cloudy
8:35 AM 80.6 °F 83.9 °F 69.8 °F 70% 29.97 in 10.0 mi SSE 6.9 mph - N/A   Partly Cloudy
8:55 AM 80.6 °F 83.9 °F 69.8 °F 70% 29.98 in 10.0 mi SSE 8.1 mph - N/A   Partly Cloudy
9:15 AM 80.6 °F 83.9 °F 69.8 °F 70% 29.98 in 10.0 mi SSE 9.2 mph - N/A   Clear
9:35 AM 80.6 °F 83.9 °F 69.8 °F 70% 29.98 in 10.0 mi SSE 9.2 mph - N/A   Clear
9:55 AM 80.6 °F 83.9 °F 69.8 °F 70% 29.99 in 10.0 mi SSE 9.2 mph - N/A   Partly Cloudy
10:15 AM 82.4 °F 86.3 °F 69.8 °F 66% 29.99 in 10.0 mi SSE 10.4 mph - N/A   Partly Cloudy
10:35 AM 82.4 °F 86.3 °F 69.8 °F 66% 29.99 in 10.0 mi SSE 9.2 mph - N/A   Clear
10:55 AM 82.4 °F 86.3 °F 69.8 °F 66% 29.98 in 10.0 mi SSE 11.5 mph - N/A   Clear
11:15 AM 80.6 °F 84.6 °F 71.6 °F 74% 29.98 in 10.0 mi SE 10.4 mph - N/A   Scattered Clouds
11:55 AM 82.4 °F 86.3 °F 69.8 °F 66% 29.98 in 10.0 mi SE 9.2 mph - N/A   Clear
12:15 PM 82.4 °F 86.3 °F 69.8 °F 66% 29.99 in 10.0 mi SE 9.2 mph - N/A   Clear
12:35 PM 82.4 °F 86.3 °F 69.8 °F 66% 29.98 in 10.0 mi SE 10.4 mph - N/A   Partly Cloudy
12:55 PM 82.4 °F 87.2 °F 71.6 °F 70% 29.98 in 10.0 mi SE 9.2 mph - N/A   Clear
1:15 PM 82.4 °F 87.2 °F 71.6 °F 70% 29.98 in 10.0 mi ESE 8.1 mph - N/A   Clear
1:55 PM 82.4 °F 86.3 °F 69.8 °F 66% 29.97 in 10.0 mi SE 8.1 mph - N/A   Mostly Cloudy
2:15 PM 82.4 °F 86.3 °F 69.8 °F 66% 29.96 in 10.0 mi SE 9.2 mph - N/A   Scattered Clouds
2:35 PM 84.2 °F 88.4 °F 69.8 °F 62% 29.96 in 10.0 mi SE 10.4 mph - N/A   Partly Cloudy
2:55 PM 82.4 °F 86.3 °F 69.8 °F 66% 29.95 in 10.0 mi SE 10.4 mph - N/A   Clear
3:15 PM 82.4 °F 86.3 °F 69.8 °F 66% 29.94 in 10.0 mi SE 10.4 mph - N/A   Clear
3:35 PM 82.4 °F 86.3 °F 69.8 °F 66% 29.94 in 10.0 mi ESE 12.7 mph - N/A   Partly Cloudy
3:55 PM 84.2 °F 88.4 °F 69.8 °F 62% 29.93 in 10.0 mi ESE 9.2 mph - N/A   Clear
4:15 PM 82.4 °F 87.2 °F 71.6 °F 70% 29.93 in 10.0 mi ESE 10.4 mph - N/A   Clear
4:55 PM 82.4 °F 86.3 °F 69.8 °F 66% 29.92 in 10.0 mi ESE 12.7 mph - N/A   Partly Cloudy
5:15 PM 82.4 °F 87.2 °F 71.6 °F 70% 29.91 in 10.0 mi ESE 10.4 mph - N/A   Partly Cloudy
5:35 PM 82.4 °F 86.3 °F 69.8 °F 66% 29.91 in 10.0 mi ESE 11.5 mph - N/A   Clear
5:55 PM 82.4 °F 87.2 °F 71.6 °F 70% 29.90 in 10.0 mi ESE 11.5 mph - N/A   Clear
6:15 PM 82.4 °F 87.2 °F 71.6 °F 70% 29.90 in 10.0 mi ESE 12.7 mph - N/A   Clear
6:35 PM 80.6 °F 83.9 °F 69.8 °F 70% 29.90 in 10.0 mi ESE 12.7 mph - N/A   Clear
6:55 PM 80.6 °F 84.6 °F 71.6 °F 74% 29.90 in 10.0 mi ESE 12.7 mph - N/A   Clear
7:15 PM 80.6 °F 84.6 °F 71.6 °F 74% 29.90 in 10.0 mi SE 10.4 mph - N/A   Clear
7:35 PM 80.6 °F 83.9 °F 69.8 °F 70% 29.91 in 10.0 mi ESE 12.7 mph - N/A   Clear
7:55 PM 80.6 °F 83.9 °F 69.8 °F 70% 29.91 in 10.0 mi SE 11.5 mph - N/A   Clear
8:15 PM 80.6 °F 83.9 °F 69.8 °F 70% 29.91 in 10.0 mi SE 11.5 mph - N/A   Clear
8:35 PM 78.8 °F - 71.6 °F 78% 29.92 in 10.0 mi SE 11.5 mph - N/A   Clear
8:55 PM 78.8 °F - 71.6 °F 78% 29.92 in 10.0 mi SE 13.8 mph - N/A   Partly Cloudy
9:15 PM 80.6 °F 84.6 °F 71.6 °F 74% 29.92 in 10.0 mi SE 11.5 mph - N/A   Partly Cloudy
9:35 PM 80.6 °F 84.6 °F 71.6 °F 74% 29.93 in 10.0 mi ESE 10.4 mph 17.3 mph N/A   Scattered Clouds
9:55 PM 78.8 °F - 71.6 °F 78% 29.93 in 10.0 mi SE 12.7 mph - N/A   Partly Cloudy
10:15 PM 78.8 °F - 71.6 °F 78% 29.94 in 10.0 mi SE 11.5 mph - N/A   Partly Cloudy
10:55 PM 78.8 °F - 71.6 °F 78% 29.94 in 10.0 mi SE 13.8 mph 17.3 mph N/A   Partly Cloudy
11:15 PM 78.8 °F - 71.6 °F 78% 29.95 in 10.0 mi SE 12.7 mph 16.1 mph N/A   Partly Cloudy
11:35 PM 78.8 °F - 71.6 °F 78% 29.95 in 10.0 mi SE 11.5 mph 19.6 mph N/A   Partly Cloudy
11:55 PM 78.8 °F - 73.4 °F 83% 29.95 in 10.0 mi SE 13.8 mph 18.4 mph N/A   Scattered Clouds